Regional Weather Roundup
Issued by NWS Memphis, TN

Home | Current Version | Previous Version | Text Only | Print | Product List | Glossary On
Versions: 1 2 3 4 5 6 7 8 9 10 11 12 13 14 15 16 17 18 19 20 21 22 23 24 25 26 27 28 29 30 31 32 33 34 35 36 37 38 39 40 41 42 43 44 45 46 47 48 49 50
000
ASUS44 KMEG 302310
RWRMEG
MEMPHIS CWA HOURLY WEATHER ROUNDUP
NATIONAL WEATHER SERVICE MEMPHIS TN
600 PM CDT SAT AUG 30 2014

...WEST TENNESSEE...

CITY           SKY/WX    TMP DP  RH WIND       PRES   REMARKS
MEMPHIS INTL   LGT RAIN  77  74  90 S6        30.02R
NWS MEMPHIS      N/A     77 N/A N/A MISG        N/A
JACKSON        CLOUDY    77  73  88 S5        30.02R
LEXINGTON      CLOUDY    77  73  88 CALM      30.04R
SAVANNAH       PTSUNNY   79  75  89 W3        30.04S
DYERSBURG      CLOUDY    75  64  69 CALM      30.01S
UNION CITY     SUNNY     73  72  94 SE5       30.00S
PARIS          CLOUDY    72  72 100 CALM      30.04R


...EASTERN ARKANSAS...

CITY           SKY/WX    TMP DP  RH WIND       PRES   REMARKS
JONESBORO      CLOUDY    80  72  76 S8        29.96S
WEST MEMPHIS   LGT RAIN  76  75  97 S12       29.99R
BATESVILLE     CLOUDY    82  70  65 S7        29.95S
NEWPORT        CLOUDY    82  73  74 S9        29.96S
WALNUT RIDGE   CLOUDY    79  70  73 S9        29.96R
BLYTHEVILLE    CLOUDY    79  74  84 S10       29.99S
SEARCY         CLOUDY    82  74  77 MISG      29.96S
STUTTGART      CLOUDY    79  72  78 SE9       29.97S
PINE BLUFF     CLOUDY    79  72  79 E8        29.95S
MONTICELLO     CLOUDY    76  73  91 E5        29.95S


...NORTH MISSISSIPPI...

CITY           SKY/WX    TMP DP  RH WIND       PRES   REMARKS
TUPELO         RAIN      73  71  93 W6G20     30.08S FOG
OLIVE BRANCH   PTSUNNY   73  73 100 S9        30.03R
CLARKSDALE     CLOUDY    75  75 100 CALM      30.00S
CORINTH        RAIN      75  72  88 S6        30.05R
GRENADA        CLOUDY    72  70  94 SE7       30.03F
GREENWOOD      LGT RAIN  74  72  93 SE7       30.00F
COLUMBUS       LGT RAIN  73  73 100 S6        30.08F
STARKVILLE     LGT RAIN  72  70  94 S3        30.06F
GOLDEN TRIANGL CLOUDY    73  70  88 S7        30.08F


...SOUTHEAST MISSOURI...

CITY           SKY/WX    TMP DP  RH WIND       PRES   REMARKS
WEST PLAINS    PTSUNNY   81  69  67 S9        29.98R
POPLAR BLUFF   CLOUDY    80  68  66 S9        29.95R
CAPE GIRARDEAU PTSUNNY   79  70  74 S9        29.97S


...NORTHWEST ALABAMA...

CITY           SKY/WX    TMP DP  RH WIND       PRES   REMARKS
MUSCLE SHOALS  CLOUDY    77  72  84 W9        30.05R


...MIDDLE TENNESSEE...

CITY           SKY/WX    TMP DP  RH WIND       PRES   REMARKS
NASHVILLE      CLOUDY    77  71  82 NE6       30.04R
CLARKSVILLE    CLOUDY    77  72  84 E3        30.04R
DICKSON        CLOUDY    77  72  83 CALM      30.04R
COLUMBIA         N/A     79  79 100 NE7       30.03R
LEWISBURG      CLOUDY    73  71  93 NE3       30.04R


...WESTERN KENTUCKY...

CITY           SKY/WX    TMP DP  RH WIND       PRES   REMARKS
PADUCAH        CLOUDY    78  73  84 S5        30.00S
FORT CAMPBELL  CLOUDY    76  76 100 E3        30.04R


...CENTRAL ARKANSAS...

CITY           SKY/WX    TMP DP  RH WIND       PRES   REMARKS
LITTLE ROCK    PTSUNNY   82  71  69 SE10      29.94S


SKY/WX REPORTED AS FAIR MEANS FEW OR NO CLOUDS BELOW
12 THOUSAND FEET.




USA.gov is the U.S. government's official web portal to all federal, state and local government web resources and services.